Regional Weather Roundup
Issued by NWS

Home | Current Version | Previous Version | Graphics & Text | Print | Product List | Glossary On
Versions: 1 2 3 4 5 6 7 8 9 10 11 12 13 14 15 16 17 18 19 20 21 22 23 24 25 26 27 28 29 30 31 32 33 34 35 36 37 38 39 40 41 42 43 44 45 46 47 48 49 50
000
ASUS43 KDMX 261203
RWRIA

WEATHER ROUNDUP FOR IOWA
NATIONAL WEATHER SERVICE DES MOINES IA
700 AM CDT THU MAY 26 2016

NOTE: "FAIR" INDICATES FEW OR NO CLOUDS BELOW 12,000 FEET WITH NO
SIGNIFICANT WEATHER AND/OR OBSTRUCTIONS TO VISIBILITY.

* - THESE STATIONS ARE NOT NWS STATIONS...THUS NOT UNDER NWS
QUALITY CONTROL.  THEY ALSO DO NOT REPORT WEATHER SUCH
AS PRECIPITATION OR FOG.

IAZ001>003-012>014-020>022-031>034-043>046-261300-
   NORTHWEST IOWA

CITY           SKY/WX    TMP DP  RH WIND       PRES   REMARKS
CARROLL *      SUNNY     59  57  94 SE6       29.88S
CHEROKEE *     SUNNY     57  57 100 CALM      29.86F
DENISON *      SUNNY     55  55 100 CALM      29.86R
LE MARS *      SUNNY     59  57  94 CALM      29.87R
ORANGE CITY *  SUNNY     57  55  94 CALM      29.85S
SHELDON *      SUNNY     59  57  94 SW3       29.84R
SIOUX CITY     SUNNY     59  56  89 CALM      29.88R
6HR MIN TEMP:  53; 6HR MAX TEMP:  64; 6HR PCP:  0.13;

SPENCER        SUNNY     59  55  87 S6        29.85S
6HR MIN TEMP:  58; 6HR MAX TEMP:  67; 6HR PCP:  0.17;

STORM LAKE *   SUNNY     57  55  94 S5        29.88R
$$

IAZ055>058-069>071-079>083-090>094-261300-
   SOUTHWEST IOWA

CITY           SKY/WX    TMP DP  RH WIND       PRES   REMARKS
ATLANTIC *     SUNNY     59  59 100 CALM      29.88R
AUDUBON *      SUNNY     57  55  94 CALM      29.89R
CLARINDA *       N/A     61  59  94 MISG      29.88F
COUNCIL BLFS * SUNNY     61  57  88 CALM      29.88S
CRESTON *      SUNNY     61  59  94 SE6       29.90F
HARLAN  *      SUNNY     59  57  94 CALM      29.92R
LAMONI         CLOUDY    63  61  93 N5        29.89S
6HR MIN TEMP:  62; 6HR MAX TEMP:  71; 6HR PCP:  0.01;

RED OAK *      SUNNY     59  59 100 CALM      29.88R
SHENANDOAH *   SUNNY     63  61  94 CALM      29.87F
$$

IAZ047>049-059>061-072>074-084-261300-
   CENTRAL IOWA

CITY           SKY/WX    TMP DP  RH WIND       PRES   REMARKS
AMES           CLOUDY    58  57  97 CALM      29.88R
6HR MIN TEMP:  58; 6HR MAX TEMP:  69; 6HR PCP:  0.33;

ANKENY *       CLOUDY    59  59 100 CALM      29.89R
BOONE *        SUNNY     59  57  94 CALM      29.87F
CHARITON *     CLOUDY   N/A N/A N/A CALM      29.90F
DES MOINES     CLOUDY    62  58  86 S7        29.88S
6HR MIN TEMP:  62; 6HR MAX TEMP:  73; 6HR PCP:  0.47;

GRINNELL*      CLOUDY    59  57  92 S3        29.91R
KNOXVILLE *    CLOUDY    63  59  88 CALM      29.88S
NEWTON *       CLOUDY    61  61 100 SW6       29.90R
PELLA *        CLOUDY    61  59  94 CALM      29.91R
PERRY *          N/A     59  57  94 CALM      29.88S
$$

IAZ004>006-015-016-023>025-035-036-261300-
   NORTH CENTRAL IOWA

CITY           SKY/WX    TMP DP  RH WIND       PRES   REMARKS
ALGONA *       CLOUDY    59  57  94 SW9       29.88S
CLARION *      CLOUDY    59  57  94 SE7       29.85R
ESTHERVILLE    CLOUDY    57  56  96 S6        29.85R
6HR MIN TEMP:  56; 6HR MAX TEMP:  65; 6HR PCP:  0.37;

FORT DODGE *   SUNNY     57  54  88 SW5       29.87S
MASON CITY     CLOUDY    58  57  97 S10       29.85R
6HR MIN TEMP:  57; 6HR MAX TEMP:  66; 6HR PCP:  0.77;

FOREST CITY *  SUNNY     57  57 100 SW6       29.86R
WEBSTER CITY * SUNNY     61  59  94 S10       29.84S
IOWA FALLS *     N/A     59  57  93 SE3       29.88S
$$

IAZ007>011-017>019-026>030-037>042-050>054-066-261300-
   NORTHEAST IOWA

CITY           SKY/WX    TMP DP  RH WIND       PRES   REMARKS
CEDAR RAPIDS   CLOUDY    62  59  90 NE6       29.86F
6HR MIN TEMP:  61; 6HR MAX TEMP:  71; 6HR PCP:  0.30;

CHARLES CITY * PTSUNNY   59  59 100 S9        29.86R
CLINTON *      TSTM      63  59  87 NW9G22    29.94R
DECORAH *      CLOUDY    59  59 100 SW3       29.86F
DUBUQUE        CLOUDY    62  57  83 NW13G25   29.86F
6HR MIN TEMP:  61; 6HR MAX TEMP:  69; 6HR PCP:  0.03;

MONTICELLO *   CLOUDY    63  57  82 N5        29.84F
OELWEIN *      CLOUDY    61  57  88 N9        29.87R
WATERLOO       PTSUNNY   60  57  89 NW3       29.86R
6HR MIN TEMP:  58; 6HR MAX TEMP:  70; 6HR PCP:  0.62;

$$

IAZ064-065-067-068-078-261300-
   EAST CENTRAL IOWA

CITY           SKY/WX    TMP DP  RH WIND       PRES   REMARKS
DAVENPORT        N/A     62  60  93 E3        29.96R THUNDER
6HR MIN TEMP:  61; 6HR MAX TEMP:  73; 6HR PCP:  0.55;

IOWA CITY      PTSUNNY   63  57  81 E3        29.90F
6HR MIN TEMP:  62; 6HR MAX TEMP:  73; 6HR PCP:  0.02;

MT. PLEASANT * CLOUDY    68  64  88 N7G20     29.93R
MUSCATINE *    CLOUDY    66  57  72 NE3       29.91F
QUAD CITIES    CLOUDY    67  60  78 N9        29.94R
6HR MIN TEMP:  67; 6HR MAX TEMP:  76; 6HR PCP: TRACE;

$$

IAZ062-063-075>077-085>089-095>099-261300-
   SOUTHEAST IOWA

CITY           SKY/WX    TMP DP  RH WIND       PRES   REMARKS
BURLINGTON     CLOUDY    65  64  97 CALM      29.94R
6HR MIN TEMP:  65; 6HR MAX TEMP:  71; 6HR PCP:  0.38;

FAIRFIELD *      N/A    N/A N/A N/A MISG        N/A
FORT MADISON * CLOUDY    64  63  94 CALM      29.92S
KEOKUK *       CLOUDY    64  64 100 CALM      29.92S
OSKALOOSA *      N/A     63  59  88 E7        29.89F
OTTUMWA        PTSUNNY   65  61  87 E9        29.88F
6HR MIN TEMP:  63; 6HR MAX TEMP:  73; 6HR PCP:  0.02;

WASHINGTON *   SUNNY     63  63 100 NE6       29.91F
$$

ABBREVIATIONS USED IN REMARKS
   TC - TEMPERATURES IN CELSIUS
  WCI - WIND CHILL INDEX
   HX - HEAT INDEX
  VSB - VISIBILITY
$$





USA.gov is the U.S. government's official web portal to all federal, state and local government web resources and services.